Location: Elstree
(51.6403°N, 0.2969°W)
Time: 17:25:28
(UTC+00:00)

Gbstr 26 Del rocket - Pass Details

Date: 03 March 2021
Orbit: 492 x 1264 km, 51.8° (Epoch: 17 April)

Event Time Altitude Azimuth Distance (km) Brightness Sun altitude
Rises 18:06:18 0° 247° (WSW) 2,704 8.1 -4.1°
Reaches altitude 10° 18:08:21 10° 245° (WSW) 1,880 7.0 -4.4°
Maximum altitude 18:12:35 71° 161° (SSE) 687 3.3 -5.0°
Drops below altitude 10° 18:17:46 10° 78° (ENE) 2,294 5.3 -5.8°
Enters shadow 18:18:33 - 78° (ENE) 2,602 5.6 -6.0°
